Ft Pierce, FL

3:59 AM EDT on May 29, 2017 (GMT -0400)
Saint Lucie County International

Weather History for KFPR - September, 2013

Change the Weather History Date:

Tuesday, September 10, 2013

  Actual Average Record
Temperature  
Mean Temperature 80 °F -  
Max Temperature 89 °F 89 °F 95 °F (1937)
Min Temperature 73 °F 71 °F 66 °F (1960)
Cooling Degree Days 16    
Growing Degree Days 30 (Base 50)    
Moisture  
Dew Point 72 °F    
Average Humidity 73    
Maximum Humidity 89    
Minimum Humidity 61    
Precipitation  
Precipitation 0.41 in - - ()
Sea Level Pressure  
Sea Level Pressure 30.04 in    
Wind  
Wind Speed 9 mph (ENE)    
Max Wind Speed 16 mph    
Max Gust Speed 30 mph    
Visibility 8 miles    
Events Rain , Thunderstorm    
Averages and records for this station are not official NWS values.
T = Trace of Precipitation, MM = Missing Value Source: NWS Daily Summary

Daily Weather History Graph

Daily Weather History Graph

Search for Another Location

Airport or City:

Trip Planner

Search our weather history database for the weather conditions in past years. The results will help you decide how hot, cold, wet, or windy it might be!

Date:

Astronomy

Sep. 10, 2013 Rise Set
Actual Time 7:04 AM EDT 7:31 PM EDT
Civil Twilight 6:41 AM EDT 7:55 PM EDT
Nautical Twilight 6:13 AM EDT 8:22 PM EDT
Astronomical Twilight 5:45 AM EDT 8:50 PM EDT
Moon 11:57 AM EDT (9/10) 11:05 PM EDT (9/10)
Length of Visible Light 13h 13m
Length of Day
12h 26m
Waxing Crescent, 28% of the Moon is Illuminated
Sep 10
Waxing Crescent
Sep 12
First Quarter
Sep 19
Full
Sep 26
Last Quarter
Oct 4
New

Hourly Weather History & Observations

Time (EDT) Temp. Heat Index Dew Point Humidity Pressure Visibility Wind Dir Wind Speed Gust Speed Precip Events Conditions
12:53 AM 81.0 °F 85.2 °F 72.0 °F 74% 30.01 in 10.0 mi East 8.1 mph - N/A   Partly Cloudy
1:53 AM 81.0 °F 85.2 °F 72.0 °F 74% 30.01 in 10.0 mi East 6.9 mph - N/A   Partly Cloudy
2:53 AM 81.0 °F 85.2 °F 72.0 °F 74% 30.00 in 10.0 mi Variable 4.6 mph - N/A   Scattered Clouds
3:53 AM 81.0 °F 84.9 °F 71.1 °F 72% 29.99 in 10.0 mi ENE 8.1 mph - N/A   Scattered Clouds
4:53 AM 81.0 °F 84.9 °F 71.1 °F 72% 29.99 in 10.0 mi ENE 5.8 mph - N/A   Partly Cloudy
5:53 AM 81.0 °F 84.4 °F 70.0 °F 69% 30.00 in 10.0 mi ENE 6.9 mph - N/A   Partly Cloudy
6:53 AM 81.0 °F 84.4 °F 70.0 °F 69% 30.02 in 10.0 mi ENE 8.1 mph - N/A   Partly Cloudy
7:53 AM 81.0 °F 84.4 °F 70.0 °F 69% 30.03 in 10.0 mi ENE 9.2 mph - N/A   Clear
8:53 AM 84.0 °F 88.4 °F 70.0 °F 63% 30.05 in 10.0 mi ENE 8.1 mph - N/A   Clear
9:53 AM 84.9 °F 90.1 °F 71.1 °F 63% 30.07 in 10.0 mi ENE 12.7 mph - N/A   Scattered Clouds
10:53 AM 86.0 °F 92.2 °F 72.0 °F 63% 30.08 in 10.0 mi NE 9.2 mph 18.4 mph N/A   Scattered Clouds
11:53 AM 87.1 °F 93.6 °F 72.0 °F 61% 30.07 in 10.0 mi NE 8.1 mph 19.6 mph N/A   Clear
12:53 PM 87.1 °F 93.6 °F 72.0 °F 61% 30.06 in 10.0 mi NE 10.4 mph 19.6 mph N/A   Scattered Clouds
1:53 PM 88.0 °F 95.6 °F 73.0 °F 61% 30.06 in 10.0 mi NE 11.5 mph 16.1 mph N/A   Scattered Clouds
2:46 PM 87.8 °F 95.6 °F 73.4 °F 62% 30.04 in 10.0 mi NE 16.1 mph 29.9 mph N/A   Mostly Cloudy
2:53 PM 82.9 °F 87.5 °F 71.1 °F 67% 30.05 in 10.0 mi NE 10.4 mph 29.9 mph N/A   Mostly Cloudy
3:00 PM 80.6 °F 84.6 °F 71.6 °F 74% 30.05 in 9.0 mi NE 9.2 mph 18.4 mph 0.00 in Rain Light Rain
3:53 PM 84.9 °F 93.3 °F 75.0 °F 72% 30.03 in 10.0 mi ENE 9.2 mph - 0.00 in Rain Light Rain
4:17 PM 82.4 °F 88.2 °F 73.4 °F 74% 30.03 in 10.0 mi ESE 10.4 mph - 0.00 in Rain Light Rain
4:53 PM 82.9 °F 88.8 °F 73.0 °F 72% 30.03 in 10.0 mi East 4.6 mph - 0.00 in   Mostly Cloudy
5:07 PM 87.8 °F 95.6 °F 73.4 °F 62% 30.02 in 10.0 mi ENE 10.4 mph - N/A   Scattered Clouds
5:53 PM 84.9 °F 91.4 °F 73.0 °F 67% 30.03 in 10.0 mi East 8.1 mph - N/A   Partly Cloudy
6:26 PM 75.2 °F - 68.0 °F 78% 30.06 in 1.5 mi East 15.0 mph 29.9 mph 0.05 in Rain Heavy Rain
6:51 PM 73.4 °F - 69.8 °F 88% 30.04 in 7.0 mi ESE 5.8 mph - 0.10 in Rain Light Rain
6:53 PM 75.0 °F - 70.0 °F 84% 30.04 in 7.0 mi SE 5.8 mph - 0.10 in Rain Light Rain
7:53 PM 79.0 °F - 73.0 °F 82% 30.04 in 10.0 mi ESE 16.1 mph - 0.00 in   Clear
8:53 PM 79.0 °F - 69.1 °F 72% 30.06 in 10.0 mi East 6.9 mph - N/A   Clear
9:53 PM 80.1 °F 84.2 °F 73.0 °F 79% 30.06 in 10.0 mi East 8.1 mph - N/A   Clear
10:22 PM 80.6 °F 85.4 °F 73.4 °F 79% 30.06 in 10.0 mi East 6.9 mph - N/A Thunderstorm Partly Cloudy
10:37 PM 78.8 °F - 69.8 °F 74% 30.07 in 3.0 mi East 11.5 mph 23.0 mph 0.09 in Rain Heavy Rain
10:39 PM 77.0 °F - 69.8 °F 78% 30.07 in 2.0 mi ENE 12.7 mph 23.0 mph 0.15 in Rain Heavy Rain
10:46 PM 75.2 °F - 71.6 °F 89% 30.07 in 1.2 mi East 9.2 mph 18.4 mph 0.29 in Rain Heavy Rain
10:51 PM 77.0 °F - 73.4 °F 89% 30.06 in 2.0 mi East 9.2 mph - 0.30 in Rain Heavy Rain
10:53 PM 77.0 °F - 73.0 °F 88% 30.06 in 3.0 mi East 11.5 mph - 0.30 in Rain Rain
11:53 PM 77.0 °F - 72.0 °F 84% 30.06 in 10.0 mi East 4.6 mph - 0.01 in   Clear